Wetterdaten: Samstag, 23.06.2012
Datum Zeit Temperatur Luftfeuchte Regen Wind Richtung Richtung Taupunkt Windchill Windben
23.06.2012 00:03 14,2 C 69 % 0,0 l/m 0,3 km/h (0 Bft) N-NO 22 8,6 C 14,2 C 0,0 km/h (0 Bft)
23.06.2012 00:09 14,2 C 69 % 0,0 l/m 0,3 km/h (0 Bft) N-NO 22 8,6 C 14,2 C 0,0 km/h (0 Bft)
23.06.2012 00:10 14,2 C 69 % 0,0 l/m 0,3 km/h (0 Bft) N-NO 22 8,6 C 14,2 C 0,0 km/h (0 Bft)
23.06.2012 00:15 14,0 C 71 % 0,0 l/m 0,0 km/h (0 Bft) W-SW 247 8,8 C 14,0 C 0,0 km/h (0 Bft)
23.06.2012 00:20 13,9 C 72 % 0,0 l/m 0,2 km/h (0 Bft) N-NW 337 8,9 C 13,8 C 0,0 km/h (0 Bft)
23.06.2012 00:23 13,8 C 73 % 0,0 l/m 0,3 km/h (0 Bft) O-SO 112 9,0 C 13,7 C 0,0 km/h (0 Bft)
23.06.2012 00:26 13,8 C 73 % 0,0 l/m 0,3 km/h (0 Bft) O-SO 112 9,0 C 13,7 C 0,0 km/h (0 Bft)
23.06.2012 00:30 13,8 C 73 % 0,0 l/m 0,3 km/h (0 Bft) O-SO 112 9,0 C 13,7 C 0,0 km/h (0 Bft)
23.06.2012 00:35 13,8 C 73 % 0,0 l/m 0,0 km/h (0 Bft) SO 135 9,0 C 13,7 C 0,0 km/h (0 Bft)
23.06.2012 00:40 13,8 C 73 % 0,0 l/m 0,6 km/h (0 Bft) N-NO 22 9,0 C 13,7 C 3,1 km/h (1 Bft)
23.06.2012 00:45 13,8 C 72 % 0,0 l/m 0,8 km/h (0 Bft) W-NW 292 8,8 C 13,6 C 0,0 km/h (0 Bft)
23.06.2012 00:50 13,7 C 73 % 0,0 l/m 0,6 km/h (0 Bft) N-NO 22 8,9 C 13,5 C 0,0 km/h (0 Bft)
23.06.2012 00:55 13,8 C 71 % 0,0 l/m 0,3 km/h (0 Bft) O-NO 67 8,6 C 13,5 C 0,0 km/h (0 Bft)
23.06.2012 01:00 13,8 C 70 % 0,0 l/m 0,0 km/h (0 Bft) N 360 8,4 C 13,5 C 0,0 km/h (0 Bft)
23.06.2012 01:05 13,8 C 70 % 0,0 l/m 0,0 km/h (0 Bft) NO 45 8,4 C 13,5 C 0,0 km/h (0 Bft)
23.06.2012 01:10 13,8 C 71 % 0,0 l/m 0,0 km/h (0 Bft) N 360 8,6 C 13,5 C 1,6 km/h (1 Bft)
23.06.2012 01:15 13,8 C 70 % 0,0 l/m 0,2 km/h (0 Bft) O-SO 112 8,4 C 13,5 C 1,8 km/h (1 Bft)
23.06.2012 01:20 13,8 C 70 % 0,0 l/m 0,3 km/h (0 Bft) N-NO 22 8,4 C 13,5 C 0,0 km/h (0 Bft)
23.06.2012 01:25 13,8 C 70 % 0,0 l/m 0,3 km/h (0 Bft) S 180 8,4 C 13,5 C 0,0 km/h (0 Bft)
23.06.2012 01:30 13,7 C 71 % 0,0 l/m 0,2 km/h (0 Bft) O 90 8,5 C 13,5 C 0,0 km/h (0 Bft)
23.06.2012 01:35 13,7 C 71 % 0,0 l/m 0,2 km/h (0 Bft) NO 45 8,5 C 13,5 C 0,0 km/h (0 Bft)
23.06.2012 01:40 13,6 C 72 % 0,0 l/m 0,0 km/h (0 Bft) N 360 8,6 C 13,5 C 0,0 km/h (0 Bft)
23.06.2012 01:45 13,6 C 72 % 0,0 l/m 0,2 km/h (0 Bft) NW 315 8,6 C 13,5 C 0,0 km/h (0 Bft)
23.06.2012 01:50 13,7 C 70 % 0,0 l/m 0,6 km/h (0 Bft) S 180 8,3 C 13,5 C 1,9 km/h (1 Bft)
23.06.2012 01:55 13,7 C 70 % 0,0 l/m 0,8 km/h (0 Bft) S 180 8,3 C 13,5 C 2,9 km/h (1 Bft)
23.06.2012 02:00 13,6 C 70 % 0,0 l/m 0,8 km/h (0 Bft) SO 135 8,2 C 13,5 C 0,0 km/h (0 Bft)
23.06.2012 02:05 13,6 C 70 % 0,0 l/m 0,5 km/h (0 Bft) W-SW 247 8,2 C 13,5 C 2,1 km/h (1 Bft)
23.06.2012 02:10 13,6 C 70 % 0,0 l/m 0,3 km/h (0 Bft) N-NO 22 8,2 C 13,5 C 1,9 km/h (1 Bft)
23.06.2012 02:15 13,5 C 71 % 0,0 l/m 0,5 km/h (0 Bft) NO 45 8,3 C 13,5 C 0,0 km/h (0 Bft)
23.06.2012 02:20 13,4 C 73 % 0,0 l/m 0,3 km/h (0 Bft) N-NO 22 8,7 C 13,3 C 0,0 km/h (0 Bft)
23.06.2012 02:25 13,4 C 73 % 0,0 l/m 0,0 km/h (0 Bft) N-NO 22 8,7 C 13,2 C 0,0 km/h (0 Bft)
23.06.2012 02:30 13,4 C 74 % 0,0 l/m 0,5 km/h (0 Bft) N 360 8,9 C 13,2 C 0,0 km/h (0 Bft)
23.06.2012 02:35 13,4 C 73 % 0,0 l/m 0,6 km/h (0 Bft) N 360 8,7 C 13,2 C 1,8 km/h (1 Bft)
23.06.2012 02:40 13,5 C 72 % 0,0 l/m 1,0 km/h (0 Bft) N-NO 22 8,6 C 13,2 C 4,3 km/h (1 Bft)
23.06.2012 02:45 13,4 C 72 % 0,0 l/m 0,8 km/h (0 Bft) N-NO 22 8,5 C 13,2 C 0,0 km/h (0 Bft)
23.06.2012 02:50 13,3 C 72 % 0,0 l/m 0,6 km/h (0 Bft) W-NW 292 8,4 C 13,2 C 2,4 km/h (1 Bft)
23.06.2012 02:55 13,3 C 72 % 0,0 l/m 0,6 km/h (0 Bft) W-NW 292 8,4 C 13,2 C 1,6 km/h (1 Bft)
23.06.2012 02:58 13,2 C 72 % 0,0 l/m 0,6 km/h (0 Bft) N 360 8,3 C 13,0 C 2,3 km/h (1 Bft)
23.06.2012 03:03 13,1 C 73 % 0,0 l/m 0,8 km/h (0 Bft) N 360 8,4 C 13,0 C 2,4 km/h (1 Bft)
23.06.2012 03:08 13,0 C 73 % 0,0 l/m 1,0 km/h (0 Bft) N 360 8,3 C 12,9 C 1,6 km/h (1 Bft)
23.06.2012 03:13 13,0 C 73 % 0,0 l/m 0,3 km/h (0 Bft) N-NO 22 8,3 C 12,8 C 0,0 km/h (0 Bft)
23.06.2012 03:18 12,9 C 73 % 0,0 l/m 0,0 km/h (0 Bft) N 360 8,2 C 12,7 C 0,0 km/h (0 Bft)
23.06.2012 03:23 12,8 C 73 % 0,0 l/m 0,0 km/h (0 Bft) N 360 8,1 C 12,5 C 0,0 km/h (0 Bft)
23.06.2012 03:28 12,6 C 73 % 0,0 l/m 0,0 km/h (0 Bft) N 360 7,9 C 12,3 C 0,0 km/h (0 Bft)
23.06.2012 03:33 12,7 C 73 % 0,0 l/m 0,2 km/h (0 Bft) N 360 8,0 C 12,2 C 1,6 km/h (1 Bft)
23.06.2012 03:38 12,7 C 73 % 0,0 l/m 0,2 km/h (0 Bft) W-SW 247 8,0 C 12,1 C 0,0 km/h (0 Bft)
23.06.2012 03:43 12,7 C 72 % 0,0 l/m 0,3 km/h (0 Bft) N-NO 22 7,8 C 12,2 C 0,0 km/h (0 Bft)
23.06.2012 03:48 12,7 C 73 % 0,0 l/m 0,5 km/h (0 Bft) NO 45 8,0 C 12,2 C 0,0 km/h (0 Bft)
23.06.2012 03:53 12,5 C 73 % 0,0 l/m 0,5 km/h (0 Bft) N-NW 337 7,8 C 12,2 C 0,0 km/h (0 Bft)
23.06.2012 03:58 12,5 C 73 % 0,0 l/m 0,3 km/h (0 Bft) N-NO 22 7,8 C 12,1 C 0,0 km/h (0 Bft)
23.06.2012 04:03 12,2 C 74 % 0,0 l/m 0,0 km/h (0 Bft) NO 45 7,7 C 11,8 C 0,0 km/h (0 Bft)
23.06.2012 04:08 12,0 C 74 % 0,0 l/m 0,0 km/h (0 Bft) N-NO 22 7,5 C 11,6 C 0,0 km/h (0 Bft)
23.06.2012 04:13 12,1 C 75 % 0,0 l/m 0,3 km/h (0 Bft) N 360 7,8 C 11,4 C 0,0 km/h (0 Bft)
23.06.2012 04:18 12,0 C 75 % 0,0 l/m 0,8 km/h (0 Bft) N 360 7,7 C 11,4 C 4,3 km/h (1 Bft)
23.06.2012 04:23 11,9 C 76 % 0,0 l/m 0,8 km/h (0 Bft) N 360 7,8 C 11,5 C 0,0 km/h (0 Bft)
23.06.2012 04:28 12,0 C 76 % 0,0 l/m 0,5 km/h (0 Bft) N 360 7,9 C 11,6 C 0,0 km/h (0 Bft)
23.06.2012 04:33 11,9 C 77 % 0,0 l/m 0,2 km/h (0 Bft) NO 45 8,0 C 11,6 C 0,0 km/h (0 Bft)
23.06.2012 04:38 11,8 C 77 % 0,0 l/m 0,0 km/h (0 Bft) S 180 7,9 C 11,5 C 0,0 km/h (0 Bft)
23.06.2012 04:43 11,7 C 78 % 0,0 l/m 0,0 km/h (0 Bft) S 180 8,0 C 11,3 C 0,0 km/h (0 Bft)
23.06.2012 04:48 11,7 C 78 % 0,0 l/m 0,0 km/h (0 Bft) N 360 8,0 C 11,3 C 0,0 km/h (0 Bft)
23.06.2012 04:53 11,8 C 79 % 0,0 l/m 0,0 km/h (0 Bft) N 360 8,3 C 11,3 C 0,0 km/h (0 Bft)
23.06.2012 04:58 11,8 C 79 % 0,0 l/m 0,0 km/h (0 Bft) N 360 8,3 C 11,4 C 0,0 km/h (0 Bft)
23.06.2012 05:03 11,9 C 79 % 0,0 l/m 0,0 km/h (0 Bft) N 360 8,4 C 11,6 C 0,0 km/h (0 Bft)
23.06.2012 05:08 11,9 C 79 % 0,0 l/m 0,0 km/h (0 Bft) N 360 8,4 C 11,6 C 0,0 km/h (0 Bft)
23.06.2012 05:13 12,0 C 78 % 0,0 l/m 0,0 km/h (0 Bft) O-SO 112 8,3 C 11,6 C 1,8 km/h (1 Bft)
23.06.2012 05:18 12,0 C 78 % 0,0 l/m 0,6 km/h (0 Bft) S-SO 157 8,3 C 11,7 C 2,1 km/h (1 Bft)
23.06.2012 05:21 12,0 C 78 % 0,0 l/m 0,6 km/h (0 Bft) S-SO 157 8,3 C 11,7 C 2,1 km/h (1 Bft)
23.06.2012 05:25 12,0 C 78 % 0,0 l/m 0,6 km/h (0 Bft) S-SO 157 8,3 C 11,7 C 2,1 km/h (1 Bft)
23.06.2012 05:30 12,0 C 79 % 0,0 l/m 0,8 km/h (0 Bft) N-NO 22 8,5 C 11,7 C 0,0 km/h (0 Bft)
23.06.2012 05:35 12,0 C 79 % 0,0 l/m 0,3 km/h (0 Bft) N 360 8,5 C 11,8 C 0,0 km/h (0 Bft)
23.06.2012 05:40 12,1 C 78 % 0,0 l/m 0,2 km/h (0 Bft) N-NW 337 8,4 C 11,7 C 1,6 km/h (1 Bft)
23.06.2012 05:45 12,1 C 78 % 0,0 l/m 0,3 km/h (0 Bft) N-NO 22 8,4 C 11,8 C 0,0 km/h (0 Bft)
23.06.2012 05:50 12,1 C 78 % 0,0 l/m 0,3 km/h (0 Bft) NW 315 8,4 C 11,7 C 0,0 km/h (0 Bft)
23.06.2012 05:55 12,1 C 78 % 0,0 l/m 0,0 km/h (0 Bft) N 360 8,4 C 11,8 C 1,6 km/h (1 Bft)
23.06.2012 06:00 12,2 C 78 % 0,0 l/m 0,0 km/h (0 Bft) W-SW 247 8,5 C 11,9 C 0,0 km/h (0 Bft)
23.06.2012 06:05 12,2 C 77 % 0,0 l/m 0,0 km/h (0 Bft) N-NW 337 8,3 C 12,0 C 0,0 km/h (0 Bft)
23.06.2012 06:10 12,3 C 77 % 0,0 l/m 0,0 km/h (0 Bft) NO 45 8,4 C 12,1 C 0,0 km/h (0 Bft)
23.06.2012 06:15 12,5 C 76 % 0,0 l/m 0,0 km/h (0 Bft) N 360 8,4 C 12,2 C 0,0 km/h (0 Bft)
23.06.2012 06:18 12,6 C 76 % 0,0 l/m 0,6 km/h (0 Bft) N-NW 337 8,5 C 12,5 C 0,0 km/h (0 Bft)
23.06.2012 06:23 12,8 C 75 % 0,0 l/m 0,5 km/h (0 Bft) O-SO 112 8,5 C 12,7 C 0,0 km/h (0 Bft)
23.06.2012 06:28 12,8 C 74 % 0,0 l/m 0,2 km/h (0 Bft) NO 45 8,3 C 12,8 C 1,8 km/h (1 Bft)
23.06.2012 06:33 13,0 C 73 % 0,0 l/m 0,3 km/h (0 Bft) N 360 8,3 C 13,1 C 0,0 km/h (0 Bft)
23.06.2012 06:38 13,0 C 73 % 0,0 l/m 0,3 km/h (0 Bft) N-NW 337 8,3 C 13,2 C 0,0 km/h (0 Bft)
23.06.2012 06:43 13,1 C 73 % 0,0 l/m 0,5 km/h (0 Bft) NW 315 8,4 C 13,4 C 2,9 km/h (1 Bft)
23.06.2012 06:48 13,1 C 73 % 0,0 l/m 0,8 km/h (0 Bft) N-NW 337 8,4 C 13,5 C 0,0 km/h (0 Bft)
23.06.2012 06:53 13,4 C 72 % 0,0 l/m 0,8 km/h (0 Bft) N 360 8,5 C 13,6 C 0,0 km/h (0 Bft)
23.06.2012 06:58 13,9 C 70 % 0,0 l/m 0,3 km/h (0 Bft) O 90 8,5 C 14,0 C 0,0 km/h (0 Bft)
23.06.2012 07:03 14,4 C 68 % 0,0 l/m 0,0 km/h (0 Bft) S-SW 202 8,6 C 14,8 C 0,0 km/h (0 Bft)
23.06.2012 07:08 14,2 C 68 % 0,0 l/m 0,0 km/h (0 Bft) N-NW 337 8,4 C 15,0 C 0,0 km/h (0 Bft)
23.06.2012 07:13 14,2 C 68 % 0,0 l/m 0,2 km/h (0 Bft) W-NW 292 8,4 C 15,2 C 1,6 km/h (1 Bft)
23.06.2012 07:18 14,2 C 69 % 0,0 l/m 0,2 km/h (0 Bft) O-NO 67 8,6 C 15,1 C 0,0 km/h (0 Bft)
23.06.2012 07:23 16,4 C 66 % 0,0 l/m 0,2 km/h (0 Bft) N-NO 22 10,0 C 15,7 C 0,0 km/h (0 Bft)
23.06.2012 07:28 18,3 C 60 % 0,0 l/m 0,2 km/h (0 Bft) N 360 10,6 C 18,0 C 2,6 km/h (1 Bft)
23.06.2012 07:33 17,8 C 57 % 0,0 l/m 0,6 km/h (0 Bft) O-NO 67 9,2 C 19,7 C 0,0 km/h (0 Bft)
23.06.2012 07:38 16,8 C 59 % 0,0 l/m 0,8 km/h (0 Bft) N-NW 337 8,7 C 18,7 C 0,0 km/h (0 Bft)
23.06.2012 07:43 15,7 C 63 % 0,0 l/m 0,5 km/h (0 Bft) W 270 8,7 C 17,6 C 2,1 km/h (1 Bft)
23.06.2012 07:48 15,7 C 63 % 0,0 l/m 0,5 km/h (0 Bft) N 360 8,7 C 17,0 C 0,0 km/h (0 Bft)
23.06.2012 07:53 15,3 C 62 % 0,0 l/m 0,3 km/h (0 Bft) N-NO 22 8,1 C 16,8 C 0,0 km/h (0 Bft)
23.06.2012 07:58 15,3 C 61 % 0,0 l/m 0,0 km/h (0 Bft) N 360 7,8 C 16,6 C 0,0 km/h (0 Bft)
23.06.2012 08:03 15,4 C 59 % 0,0 l/m 0,0 km/h (0 Bft) W-NW 292 7,4 C 16,6 C 0,0 km/h (0 Bft)
23.06.2012 08:08 15,6 C 59 % 0,0 l/m 0,2 km/h (0 Bft) S 180 7,6 C 16,6 C 0,0 km/h (0 Bft)
23.06.2012 08:13 15,6 C 58 % 0,0 l/m 0,6 km/h (0 Bft) N-NO 22 7,4 C 16,7 C 1,6 km/h (1 Bft)
23.06.2012 08:18 15,6 C 58 % 0,0 l/m 1,1 km/h (1 Bft) W 270 7,4 C 16,9 C 3,4 km/h (1 Bft)
23.06.2012 08:23 16,0 C 58 % 0,0 l/m 1,0 km/h (0 Bft) NO 45 7,7 C 16,9 C 1,9 km/h (1 Bft)
23.06.2012 08:28 16,0 C 56 % 0,0 l/m 0,6 km/h (0 Bft) N-NW 337 7,2 C 17,1 C 3,2 km/h (1 Bft)
23.06.2012 08:33 15,7 C 58 % 0,0 l/m 0,8 km/h (0 Bft) N-NW 337 7,5 C 16,9 C 0,0 km/h (0 Bft)
23.06.2012 08:38 15,8 C 58 % 0,0 l/m 1,0 km/h (0 Bft) N-NO 22 7,6 C 16,9 C 0,0 km/h (0 Bft)
23.06.2012 08:43 16,0 C 56 % 0,0 l/m 1,6 km/h (1 Bft) W-SW 247 7,2 C 17,1 C 3,4 km/h (1 Bft)
23.06.2012 08:48 16,5 C 53 % 0,0 l/m 2,3 km/h (1 Bft) W-SW 247 6,9 C 17,2 C 3,1 km/h (1 Bft)
23.06.2012 08:53 16,9 C 52 % 0,0 l/m 1,9 km/h (1 Bft) W 270 7,0 C 18,1 C 2,1 km/h (1 Bft)
23.06.2012 08:58 16,9 C 51 % 0,0 l/m 1,6 km/h (1 Bft) N 360 6,7 C 18,2 C 0,0 km/h (0 Bft)
23.06.2012 09:03 16,9 C 50 % 0,0 l/m 2,4 km/h (1 Bft) W 270 6,4 C 18,3 C 6,8 km/h (2 Bft)
23.06.2012 09:08 17,7 C 50 % 0,0 l/m 2,9 km/h (1 Bft) W 270 7,2 C 18,5 C 4,3 km/h (1 Bft)
23.06.2012 09:13 16,9 C 49 % 0,0 l/m 3,4 km/h (1 Bft) W 270 6,1 C 18,4 C 0,0 km/h (0 Bft)
23.06.2012 09:18 16,8 C 50 % 0,0 l/m 3,2 km/h (1 Bft) N-NW 337 6,3 C 18,3 C 1,6 km/h (1 Bft)
23.06.2012 09:23 17,0 C 50 % 0,0 l/m 2,3 km/h (1 Bft) N 360 6,5 C 18,2 C 1,8 km/h (1 Bft)
23.06.2012 09:28 16,9 C 49 % 0,0 l/m 2,1 km/h (1 Bft) W-SW 247 6,1 C 18,3 C 4,3 km/h (1 Bft)
23.06.2012 09:33 17,2 C 50 % 0,0 l/m 3,1 km/h (1 Bft) N-NW 337 6,7 C 18,1 C 3,9 km/h (1 Bft)
23.06.2012 09:38 17,0 C 50 % 0,0 l/m 3,1 km/h (1 Bft) SO 135 6,5 C 18,1 C 3,7 km/h (1 Bft)
23.06.2012 09:43 18,4 C 46 % 0,0 l/m 2,9 km/h (1 Bft) SW 225 8,1 C 18,7 C 7,1 km/h (2 Bft)
23.06.2012 09:48 18,9 C 45 % 0,0 l/m 3,9 km/h (1 Bft) W-SW 247 8,3 C 20,1 C 4,8 km/h (1 Bft)
23.06.2012 09:53 19,4 C 44 % 0,0 l/m 4,7 km/h (1 Bft) W 270 8,5 C 21,3 C 6,3 km/h (2 Bft)
23.06.2012 09:58 19,6 C 41 % 0,0 l/m 4,8 km/h (1 Bft) W-NW 292 6,9 C 21,5 C 5,0 km/h (1 Bft)
23.06.2012 10:03 19,8 C 43 % 0,0 l/m 4,7 km/h (1 Bft) W-SW 247 7,8 C 22,1 C 6,3 km/h (2 Bft)
23.06.2012 10:08 20,0 C 43 % 0,0 l/m 4,5 km/h (1 Bft) N-NW 337 8,7 C 22,0 C 5,0 km/h (1 Bft)
23.06.2012 10:13 20,1 C 41 % 0,0 l/m 4,7 km/h (1 Bft) W-SW 247 7,3 C 22,3 C 6,6 km/h (2 Bft)
23.06.2012 10:18 20,1 C 40 % 0,0 l/m 4,7 km/h (1 Bft) W-NW 292 6,4 C 22,2 C 6,9 km/h (2 Bft)
23.06.2012 10:23 20,4 C 42 % 0,0 l/m 4,8 km/h (1 Bft) S 180 7,9 C 22,2 C 4,3 km/h (1 Bft)
23.06.2012 10:28 20,6 C 41 % 0,0 l/m 5,5 km/h (1 Bft) W-NW 292 7,1 C 22,1 C 8,7 km/h (2 Bft)
23.06.2012 10:33 20,9 C 40 % 0,0 l/m 4,7 km/h (1 Bft) N-NW 337 7,2 C 22,6 C 8,4 km/h (2 Bft)
23.06.2012 10:38 21,0 C 42 % 0,0 l/m 4,5 km/h (1 Bft) W 270 7,7 C 22,7 C 6,1 km/h (2 Bft)
23.06.2012 10:43 20,5 C 42 % 0,0 l/m 5,0 km/h (1 Bft) W-NW 292 7,1 C 22,4 C 7,1 km/h (2 Bft)
23.06.2012 10:48 21,2 C 42 % 0,0 l/m 4,8 km/h (1 Bft) N-NW 337 7,9 C 22,5 C 11,3 km/h (2 Bft)
23.06.2012 10:53 21,8 C 41 % 0,0 l/m 4,7 km/h (1 Bft) N-NW 337 8,0 C 23,1 C 4,2 km/h (1 Bft)
23.06.2012 10:58 21,7 C 40 % 0,0 l/m 5,0 km/h (1 Bft) W-NW 292 7,5 C 23,5 C 6,4 km/h (2 Bft)
23.06.2012 11:03 20,4 C 44 % 0,0 l/m 4,0 km/h (1 Bft) W-NW 292 7,7 C 22,7 C 3,4 km/h (1 Bft)
23.06.2012 11:08 21,3 C 44 % 0,0 l/m 3,5 km/h (1 Bft) W-NW 292 8,5 C 23,0 C 3,7 km/h (1 Bft)
23.06.2012 11:13 22,1 C 43 % 0,0 l/m 3,2 km/h (1 Bft) S-SW 202 8,9 C 23,6 C 3,9 km/h (1 Bft)
23.06.2012 11:18 21,9 C 43 % 0,0 l/m 3,7 km/h (1 Bft) N-NO 22 8,7 C 23,8 C 3,4 km/h (1 Bft)
23.06.2012 11:23 20,7 C 43 % 0,0 l/m 4,3 km/h (1 Bft) W-NW 292 7,7 C 23,7 C 4,7 km/h (1 Bft)
23.06.2012 11:28 21,2 C 44 % 0,0 l/m 3,4 km/h (1 Bft) W 270 8,5 C 23,8 C 0,0 km/h (0 Bft)
23.06.2012 11:33 20,9 C 44 % 0,0 l/m 1,9 km/h (1 Bft) W 270 8,2 C 24,3 C 6,0 km/h (2 Bft)
23.06.2012 11:38 21,5 C 47 % 0,0 l/m 2,6 km/h (1 Bft) S-SO 157 9,7 C 24,0 C 5,6 km/h (1 Bft)
23.06.2012 11:43 21,6 C 42 % 0,0 l/m 3,7 km/h (1 Bft) O 90 8,1 C 23,5 C 4,7 km/h (1 Bft)
23.06.2012 11:48 21,5 C 43 % 0,0 l/m 3,7 km/h (1 Bft) W-NW 292 8,4 C 23,9 C 3,5 km/h (1 Bft)
23.06.2012 11:53 21,6 C 44 % 0,0 l/m 4,2 km/h (1 Bft) W 270 8,8 C 23,6 C 5,1 km/h (1 Bft)
23.06.2012 11:58 22,2 C 44 % 0,0 l/m 4,2 km/h (1 Bft) S-SW 202 9,4 C 23,9 C 8,4 km/h (2 Bft)
23.06.2012 12:03 21,9 C 43 % 0,0 l/m 4,0 km/h (1 Bft) S-SO 157 8,7 C 24,3 C 6,0 km/h (2 Bft)
23.06.2012 12:08 23,1 C 43 % 0,0 l/m 3,7 km/h (1 Bft) S 180 9,8 C 24,8 C 4,8 km/h (1 Bft)
23.06.2012 12:13 22,5 C 39 % 0,0 l/m 4,2 km/h (1 Bft) N-NO 22 7,8 C 24,5 C 3,1 km/h (1 Bft)
23.06.2012 12:18 22,8 C 39 % 0,0 l/m 4,0 km/h (1 Bft) W-SW 247 8,1 C 24,8 C 6,4 km/h (2 Bft)
23.06.2012 12:23 23,3 C 39 % 0,0 l/m 3,4 km/h (1 Bft) W 270 8,6 C 24,9 C 2,6 km/h (1 Bft)
23.06.2012 12:28 22,7 C 42 % 0,0 l/m 3,1 km/h (1 Bft) W-SW 247 9,1 C 25,4 C 0,0 km/h (0 Bft)
23.06.2012 12:33 23,0 C 40 % 0,0 l/m 3,5 km/h (1 Bft) W-NW 292 8,7 C 25,3 C 6,1 km/h (2 Bft)
23.06.2012 12:38 23,0 C 41 % 0,0 l/m 3,5 km/h (1 Bft) W-NW 292 9,0 C 25,6 C 5,6 km/h (1 Bft)
23.06.2012 12:43 23,6 C 39 % 0,0 l/m 2,4 km/h (1 Bft) N 360 8,8 C 26,0 C 1,8 km/h (1 Bft)
23.06.2012 12:48 23,8 C 39 % 0,0 l/m 2,1 km/h (1 Bft) W-NW 292 9,0 C 26,9 C 5,6 km/h (1 Bft)
23.06.2012 12:53 22,5 C 43 % 0,0 l/m 3,1 km/h (1 Bft) N 360 9,3 C 26,8 C 5,6 km/h (1 Bft)
23.06.2012 12:58 21,5 C 43 % 0,0 l/m 4,2 km/h (1 Bft) W-NW 292 8,4 C 26,2 C 8,0 km/h (2 Bft)
23.06.2012 13:03 21,0 C 45 % 0,0 l/m 5,1 km/h (1 Bft) O 90 8,6 C 23,8 C 4,2 km/h (1 Bft)
23.06.2012 13:08 22,0 C 45 % 0,0 l/m 4,0 km/h (1 Bft) S 180 9,5 C 23,9 C 7,6 km/h (2 Bft)
23.06.2012 13:13 21,9 C 45 % 0,0 l/m 3,4 km/h (1 Bft) W-SW 247 9,4 C 23,9 C 9,2 km/h (2 Bft)
23.06.2012 13:18 22,0 C 45 % 0,0 l/m 4,0 km/h (1 Bft) SW 225 9,5 C 23,7 C 9,5 km/h (2 Bft)
23.06.2012 13:23 21,4 C 44 % 0,0 l/m 4,8 km/h (1 Bft) O 90 8,6 C 23,6 C 2,1 km/h (1 Bft)
23.06.2012 13:28 22,3 C 46 % 0,0 l/m 4,0 km/h (1 Bft) SO 135 10,1 C 23,7 C 0,0 km/h (0 Bft)
23.06.2012 13:33 22,2 C 46 % 0,0 l/m 3,9 km/h (1 Bft) W-SW 247 10,0 C 23,5 C 8,2 km/h (2 Bft)
23.06.2012 13:38 22,5 C 46 % 0,0 l/m 4,2 km/h (1 Bft) S-SO 157 10,3 C 23,5 C 6,8 km/h (2 Bft)
23.06.2012 13:43 22,3 C 45 % 0,0 l/m 5,5 km/h (1 Bft) W 270 9,8 C 23,5 C 7,1 km/h (2 Bft)
23.06.2012 13:48 21,4 C 47 % 0,0 l/m 5,3 km/h (1 Bft) N-NO 22 9,6 C 23,0 C 5,1 km/h (1 Bft)
23.06.2012 13:53 22,4 C 46 % 0,0 l/m 5,5 km/h (1 Bft) W-SW 247 10,2 C 23,0 C 2,1 km/h (1 Bft)
23.06.2012 13:58 23,1 C 43 % 0,0 l/m 4,8 km/h (1 Bft) SO 135 9,8 C 23,4 C 3,9 km/h (1 Bft)
23.06.2012 14:03 22,2 C 46 % 0,0 l/m 3,5 km/h (1 Bft) S-SO 157 10,0 C 24,3 C 6,1 km/h (2 Bft)
23.06.2012 14:08 22,2 C 46 % 0,0 l/m 4,2 km/h (1 Bft) S 180 10,0 C 23,8 C 4,5 km/h (1 Bft)
23.06.2012 14:13 21,5 C 48 % 0,0 l/m 4,0 km/h (1 Bft) S 180 10,0 C 23,2 C 2,9 km/h (1 Bft)
23.06.2012 14:18 21,8 C 48 % 0,0 l/m 3,9 km/h (1 Bft) SO 135 10,3 C 23,2 C 3,2 km/h (1 Bft)
23.06.2012 14:23 22,1 C 47 % 0,0 l/m 3,1 km/h (1 Bft) W-SW 247 10,3 C 23,5 C 4,5 km/h (1 Bft)
23.06.2012 14:28 21,9 C 47 % 0,0 l/m 2,7 km/h (1 Bft) W-NW 292 10,1 C 23,5 C 5,5 km/h (1 Bft)
23.06.2012 14:33 20,7 C 48 % 0,0 l/m 3,1 km/h (1 Bft) S-SW 202 9,3 C 23,2 C 4,8 km/h (1 Bft)
23.06.2012 14:38 21,0 C 48 % 0,0 l/m 3,5 km/h (1 Bft) NW 315 9,6 C 23,0 C 4,8 km/h (1 Bft)
23.06.2012 14:43 21,5 C 48 % 0,0 l/m 3,1 km/h (1 Bft) SO 135 10,0 C 23,2 C 2,9 km/h (1 Bft)
23.06.2012 14:48 23,2 C 46 % 0,0 l/m 2,7 km/h (1 Bft) S 180 10,9 C 23,8 C 3,5 km/h (1 Bft)
23.06.2012 14:53 23,7 C 42 % 0,0 l/m 2,4 km/h (1 Bft) S-SW 202 10,0 C 25,5 C 1,9 km/h (1 Bft)
23.06.2012 14:58 23,8 C 43 % 0,0 l/m 2,7 km/h (1 Bft) SO 135 10,5 C 26,0 C 4,5 km/h (1 Bft)
23.06.2012 15:03 24,4 C 40 % 0,0 l/m 3,5 km/h (1 Bft) W-NW 292 9,9 C 27,0 C 4,2 km/h (1 Bft)
23.06.2012 15:08 24,3 C 41 % 0,0 l/m 4,2 km/h (1 Bft) S-SW 202 10,2 C 27,0 C 3,2 km/h (1 Bft)
23.06.2012 15:13 23,1 C 41 % 0,0 l/m 3,5 km/h (1 Bft) S-SW 202 9,1 C 27,0 C 1,8 km/h (1 Bft)
23.06.2012 15:18 22,8 C 45 % 0,0 l/m 3,1 km/h (1 Bft) W-SW 247 10,2 C 26,8 C 3,4 km/h (1 Bft)
23.06.2012 15:23 23,7 C 44 % 0,0 l/m 3,9 km/h (1 Bft) W-NW 292 10,7 C 26,4 C 6,8 km/h (2 Bft)
23.06.2012 15:28 23,9 C 44 % 0,0 l/m 4,7 km/h (1 Bft) S-SW 202 10,9 C 26,3 C 6,4 km/h (2 Bft)
23.06.2012 15:33 23,3 C 41 % 0,0 l/m 4,3 km/h (1 Bft) N-NO 22 9,3 C 25,8 C 3,2 km/h (1 Bft)
23.06.2012 15:38 23,0 C 44 % 0,0 l/m 3,7 km/h (1 Bft) W-SW 247 10,1 C 26,1 C 6,9 km/h (2 Bft)
23.06.2012 15:43 22,5 C 46 % 0,0 l/m 3,7 km/h (1 Bft) W-NW 292 10,3 C 24,6 C 4,7 km/h (1 Bft)
23.06.2012 15:48 22,4 C 46 % 0,0 l/m 4,0 km/h (1 Bft) W-SW 247 10,2 C 24,5 C 6,6 km/h (2 Bft)
23.06.2012 15:53 21,4 C 46 % 0,0 l/m 3,4 km/h (1 Bft) N-NW 337 9,3 C 24,0 C 3,5 km/h (1 Bft)
23.06.2012 15:58 20,9 C 47 % 0,0 l/m 3,5 km/h (1 Bft) W-NW 292 9,2 C 23,7 C 5,8 km/h (2 Bft)
23.06.2012 16:03 20,7 C 49 % 0,0 l/m 2,9 km/h (1 Bft) O-NO 67 9,6 C 23,0 C 2,4 km/h (1 Bft)
23.06.2012 16:08 21,5 C 49 % 0,0 l/m 1,9 km/h (1 Bft) S-SW 202 10,3 C 23,0 C 2,1 km/h (1 Bft)
23.06.2012 16:13 21,2 C 49 % 0,0 l/m 1,1 km/h (1 Bft) S 180 10,1 C 23,5 C 0,0 km/h (0 Bft)
23.06.2012 16:18 21,1 C 49 % 0,0 l/m 1,0 km/h (0 Bft) O-SO 112 10,0 C 23,5 C 0,0 km/h (0 Bft)
23.06.2012 16:23 20,6 C 51 % 0,0 l/m 0,5 km/h (0 Bft) W-SW 247 10,1 C 23,0 C 1,9 km/h (1 Bft)
23.06.2012 16:28 20,7 C 52 % 0,0 l/m 1,0 km/h (0 Bft) O-NO 67 10,5 C 23,0 C 0,0 km/h (0 Bft)
23.06.2012 16:33 21,4 C 49 % 0,0 l/m 1,6 km/h (1 Bft) W-NW 292 10,2 C 23,8 C 2,4 km/h (1 Bft)
23.06.2012 16:38 21,5 C 52 % 0,0 l/m 1,9 km/h (1 Bft) W-NW 292 11,2 C 24,1 C 4,5 km/h (1 Bft)
23.06.2012 16:43 22,1 C 49 % 0,0 l/m 1,8 km/h (1 Bft) N-NW 337 10,9 C 25,0 C 2,1 km/h (1 Bft)
23.06.2012 16:48 22,0 C 48 % 0,0 l/m 2,1 km/h (1 Bft) NO 45 10,5 C 26,2 C 3,4 km/h (1 Bft)
23.06.2012 16:53 21,6 C 49 % 0,0 l/m 2,4 km/h (1 Bft) S 180 10,4 C 26,1 C 5,3 km/h (1 Bft)
23.06.2012 16:58 21,6 C 48 % 0,0 l/m 2,9 km/h (1 Bft) S-SW 202 10,1 C 25,7 C 4,7 km/h (1 Bft)
23.06.2012 17:03 22,1 C 48 % 0,0 l/m 3,1 km/h (1 Bft) W-SW 247 10,6 C 25,0 C 3,9 km/h (1 Bft)
23.06.2012 17:08 21,7 C 48 % 0,0 l/m 2,7 km/h (1 Bft) W-NW 292 10,2 C 25,7 C 3,9 km/h (1 Bft)
23.06.2012 17:13 21,6 C 48 % 0,0 l/m 2,1 km/h (1 Bft) SO 135 10,1 C 25,7 C 0,0 km/h (0 Bft)
23.06.2012 17:18 21,7 C 48 % 0,0 l/m 1,9 km/h (1 Bft) S-SW 202 10,2 C 26,3 C 2,6 km/h (1 Bft)
23.06.2012 17:23 20,8 C 52 % 0,0 l/m 1,6 km/h (1 Bft) N-NO 22 10,6 C 26,1 C 1,9 km/h (1 Bft)
23.06.2012 17:28 20,6 C 54 % 0,0 l/m 1,4 km/h (1 Bft) S-SO 157 11,0 C 25,0 C 2,7 km/h (1 Bft)
23.06.2012 17:33 20,6 C 54 % 0,0 l/m 1,8 km/h (1 Bft) NO 45 11,0 C 24,2 C 1,6 km/h (1 Bft)
23.06.2012 17:38 20,8 C 53 % 0,0 l/m 1,4 km/h (1 Bft) W-NW 292 10,9 C 24,0 C 0,0 km/h (0 Bft)
23.06.2012 17:43 21,1 C 53 % 0,0 l/m 1,8 km/h (1 Bft) N-NO 22 11,1 C 25,2 C 3,4 km/h (1 Bft)
23.06.2012 17:48 21,2 C 53 % 0,0 l/m 2,7 km/h (1 Bft) W-NW 292 11,2 C 25,2 C 6,8 km/h (2 Bft)
23.06.2012 17:53 20,8 C 52 % 0,0 l/m 4,8 km/h (1 Bft) W 270 10,6 C 24,5 C 8,5 km/h (2 Bft)
23.06.2012 17:58 20,7 C 52 % 0,0 l/m 5,0 km/h (1 Bft) W-SW 247 10,5 C 24,2 C 3,7 km/h (1 Bft)
23.06.2012 18:03 20,1 C 55 % 0,0 l/m 3,5 km/h (1 Bft) N-NW 337 10,8 C 22,4 C 3,4 km/h (1 Bft)
23.06.2012 18:08 19,7 C 56 % 0,0 l/m 2,1 km/h (1 Bft) N-NO 22 10,7 C 22,0 C 1,6 km/h (1 Bft)
23.06.2012 18:13 19,4 C 56 % 0,0 l/m 1,1 km/h (1 Bft) NO 45 10,4 C 21,4 C 0,0 km/h (0 Bft)
23.06.2012 18:18 19,4 C 56 % 0,0 l/m 0,8 km/h (0 Bft) N-NO 22 10,4 C 21,4 C 1,6 km/h (1 Bft)
23.06.2012 18:23 19,0 C 58 % 0,0 l/m 0,0 km/h (0 Bft) NO 45 10,5 C 21,3 C 0,0 km/h (0 Bft)
23.06.2012 18:28 19,0 C 58 % 0,0 l/m 0,0 km/h (0 Bft) N-NO 22 10,5 C 21,2 C 0,0 km/h (0 Bft)
23.06.2012 18:33 18,8 C 58 % 0,0 l/m 0,0 km/h (0 Bft) N 360 10,4 C 20,8 C 0,0 km/h (0 Bft)
23.06.2012 18:38 18,9 C 57 % 0,0 l/m 0,0 km/h (0 Bft) NO 45 10,2 C 20,8 C 0,0 km/h (0 Bft)
23.06.2012 18:43 19,5 C 58 % 0,0 l/m 0,0 km/h (0 Bft) NO 45 11,0 C 21,6 C 0,0 km/h (0 Bft)
23.06.2012 18:48 19,4 C 57 % 0,0 l/m 0,0 km/h (0 Bft) O 90 10,7 C 21,6 C 0,0 km/h (0 Bft)
23.06.2012 18:53 19,2 C 59 % 0,0 l/m 0,3 km/h (0 Bft) O-SO 112 11,0 C 21,4 C 0,0 km/h (0 Bft)
23.06.2012 18:58 19,2 C 60 % 0,0 l/m 0,3 km/h (0 Bft) N-NO 22 11,2 C 21,3 C 2,1 km/h (1 Bft)
23.06.2012 19:03 19,0 C 59 % 0,0 l/m 1,3 km/h (1 Bft) N-NW 337 10,8 C 20,8 C 1,8 km/h (1 Bft)
23.06.2012 19:08 18,8 C 59 % 0,0 l/m 1,4 km/h (1 Bft) N 360 10,6 C 20,6 C 0,0 km/h (0 Bft)
23.06.2012 19:13 18,5 C 60 % 0,0 l/m 0,5 km/h (0 Bft) N-NO 22 10,6 C 20,0 C 1,8 km/h (1 Bft)
23.06.2012 19:18 18,4 C 60 % 0,0 l/m 0,6 km/h (0 Bft) N-NO 22 10,5 C 19,8 C 0,0 km/h (0 Bft)
23.06.2012 19:23 17,9 C 62 % 0,0 l/m 0,5 km/h (0 Bft) N 360 10,5 C 19,1 C 0,0 km/h (0 Bft)
23.06.2012 19:28 18,0 C 64 % 0,0 l/m 0,3 km/h (0 Bft) NO 45 11,1 C 18,9 C 0,0 km/h (0 Bft)
23.06.2012 19:33 17,8 C 64 % 0,0 l/m 0,0 km/h (0 Bft) NO 45 10,9 C 19,3 C 1,9 km/h (1 Bft)
23.06.2012 19:38 17,8 C 64 % 0,0 l/m 0,2 km/h (0 Bft) N-NO 22 10,9 C 19,2 C 1,8 km/h (1 Bft)
23.06.2012 19:43 17,4 C 68 % 0,0 l/m 0,3 km/h (0 Bft) N-NO 22 11,4 C 18,6 C 0,0 km/h (0 Bft)
23.06.2012 19:48 17,2 C 68 % 0,0 l/m 0,2 km/h (0 Bft) N-NO 22 11,2 C 18,2 C 0,0 km/h (0 Bft)
23.06.2012 19:53 17,4 C 69 % 0,0 l/m 0,0 km/h (0 Bft) NO 45 11,7 C 18,4 C 0,0 km/h (0 Bft)
23.06.2012 19:58 17,5 C 69 % 0,0 l/m 0,0 km/h (0 Bft) N 360 11,7 C 18,8 C 0,0 km/h (0 Bft)
23.06.2012 20:03 17,7 C 65 % 0,0 l/m 0,0 km/h (0 Bft) NO 45 11,0 C 20,5 C 0,0 km/h (0 Bft)
23.06.2012 20:08 17,8 C 65 % 0,0 l/m 0,0 km/h (0 Bft) N-NO 22 11,1 C 20,9 C 0,0 km/h (0 Bft)
23.06.2012 20:13 17,8 C 65 % 0,0 l/m 0,0 km/h (0 Bft) N-NO 22 11,1 C 21,1 C 0,0 km/h (0 Bft)
23.06.2012 20:18 17,8 C 65 % 0,0 l/m 0,0 km/h (0 Bft) NO 45 11,1 C 21,1 C 0,0 km/h (0 Bft)
23.06.2012 20:23 17,3 C 66 % 0,0 l/m 0,0 km/h (0 Bft) NO 45 10,9 C 21,3 C 0,0 km/h (0 Bft)
23.06.2012 20:28 17,2 C 67 % 0,0 l/m 0,0 km/h (0 Bft) N-NO 22 11,0 C 21,4 C 0,0 km/h (0 Bft)
23.06.2012 20:33 17,0 C 67 % 0,0 l/m 0,0 km/h (0 Bft) NO 45 10,8 C 20,9 C 0,0 km/h (0 Bft)
23.06.2012 20:38 16,9 C 67 % 0,0 l/m 0,0 km/h (0 Bft) N-NO 22 10,7 C 20,7 C 0,0 km/h (0 Bft)
23.06.2012 20:43 16,2 C 69 % 0,0 l/m 0,0 km/h (0 Bft) N 360 10,5 C 19,6 C 0,0 km/h (0 Bft)
23.06.2012 20:48 16,0 C 70 % 0,0 l/m 0,0 km/h (0 Bft) NO 45 10,5 C 19,1 C 0,0 km/h (0 Bft)
23.06.2012 20:53 16,1 C 72 % 0,0 l/m 0,0 km/h (0 Bft) N-NO 22 11,0 C 18,1 C 0,0 km/h (0 Bft)
23.06.2012 20:58 16,1 C 73 % 0,0 l/m 0,0 km/h (0 Bft) O 90 11,3 C 17,8 C 0,0 km/h (0 Bft)
23.06.2012 21:03 15,1 C 75 % 0,0 l/m 0,0 km/h (0 Bft) NO 45 10,7 C 16,5 C 0,0 km/h (0 Bft)
23.06.2012 21:08 14,9 C 76 % 0,0 l/m 0,0 km/h (0 Bft) S-SO 157 10,7 C 15,7 C 0,0 km/h (0 Bft)
23.06.2012 21:13 14,6 C 77 % 0,0 l/m 0,0 km/h (0 Bft) N 360 10,6 C 15,0 C 0,0 km/h (0 Bft)
23.06.2012 21:18 14,6 C 77 % 0,0 l/m 0,0 km/h (0 Bft) N 360 10,6 C 14,9 C 0,0 km/h (0 Bft)
23.06.2012 21:23 14,0 C 78 % 0,0 l/m 0,0 km/h (0 Bft) N-NO 22 10,2 C 14,1 C 0,0 km/h (0 Bft)
23.06.2012 21:28 13,9 C 78 % 0,0 l/m 0,0 km/h (0 Bft) N-NO 22 10,1 C 13,7 C 0,0 km/h (0 Bft)
23.06.2012 21:33 13,7 C 80 % 0,0 l/m 0,0 km/h (0 Bft) NO 45 10,3 C 13,4 C 1,6 km/h (1 Bft)
23.06.2012 21:38 13,6 C 80 % 0,0 l/m 0,0 km/h (0 Bft) N 360 10,2 C 13,4 C 1,8 km/h (1 Bft)
23.06.2012 21:43 13,8 C 81 % 0,0 l/m 0,0 km/h (0 Bft) N 360 10,6 C 13,2 C 0,0 km/h (0 Bft)
23.06.2012 21:48 13,7 C 81 % 0,0 l/m 0,0 km/h (0 Bft) N 360 10,5 C 13,1 C 0,0 km/h (0 Bft)
23.06.2012 21:53 13,5 C 81 % 0,0 l/m 0,0 km/h (0 Bft) N-NO 22 10,3 C 12,9 C 0,0 km/h (0 Bft)
23.06.2012 21:58 13,4 C 81 % 0,0 l/m 0,2 km/h (0 Bft) N-NO 22 10,2 C 12,8 C 1,8 km/h (1 Bft)
23.06.2012 22:03 13,1 C 82 % 0,0 l/m 1,3 km/h (1 Bft) NO 45 10,1 C 12,7 C 2,6 km/h (1 Bft)
23.06.2012 22:08 12,9 C 83 % 0,0 l/m 1,4 km/h (1 Bft) NO 45 10,1 C 12,6 C 1,9 km/h (1 Bft)
23.06.2012 22:13 12,6 C 83 % 0,0 l/m 0,6 km/h (0 Bft) NO 45 9,8 C 12,4 C 0,0 km/h (0 Bft)
23.06.2012 22:18 12,6 C 83 % 0,0 l/m 0,5 km/h (0 Bft) NO 45 9,8 C 12,3 C 1,8 km/h (1 Bft)
23.06.2012 22:23 12,4 C 83 % 0,0 l/m 0,0 km/h (0 Bft) NO 45 9,6 C 12,0 C 0,0 km/h (0 Bft)
23.06.2012 22:28 12,3 C 82 % 0,0 l/m 0,0 km/h (0 Bft) N-NO 22 9,3 C 11,8 C 0,0 km/h (0 Bft)
23.06.2012 22:33 12,2 C 83 % 0,0 l/m 0,0 km/h (0 Bft) NO 45 9,4 C 11,7 C 0,0 km/h (0 Bft)
23.06.2012 22:38 12,2 C 83 % 0,0 l/m 0,0 km/h (0 Bft) NO 45 9,4 C 11,6 C 0,0 km/h (0 Bft)
23.06.2012 22:43 12,1 C 83 % 0,0 l/m 0,0 km/h (0 Bft) NO 45 9,3 C 11,4 C 0,0 km/h (0 Bft)
23.06.2012 22:48 12,1 C 83 % 0,0 l/m 0,0 km/h (0 Bft) N-NO 22 9,3 C 11,4 C 0,0 km/h (0 Bft)
23.06.2012 22:53 12,1 C 83 % 0,0 l/m 0,2 km/h (0 Bft) NO 45 9,3 C 11,4 C 0,0 km/h (0 Bft)
23.06.2012 22:58 12,2 C 83 % 0,0 l/m 0,2 km/h (0 Bft) O 90 9,4 C 11,4 C 0,0 km/h (0 Bft)
23.06.2012 23:06 12,2 C 83 % 0,0 l/m 0,2 km/h (0 Bft) S 180 9,4 C 11,4 C 0,0 km/h (0 Bft)
23.06.2012 23:10 12,2 C 83 % 0,0 l/m 0,2 km/h (0 Bft) S 180 9,4 C 11,4 C 0,0 km/h (0 Bft)
23.06.2012 23:15 12,1 C 83 % 0,0 l/m 0,0 km/h (0 Bft) SO 135 9,3 C 11,4 C 0,0 km/h (0 Bft)
23.06.2012 23:20 12,0 C 83 % 0,0 l/m 0,0 km/h (0 Bft) SO 135 9,2 C 11,4 C 0,0 km/h (0 Bft)
23.06.2012 23:25 12,1 C 84 % 0,0 l/m 0,0 km/h (0 Bft) NO 45 9,5 C 11,4 C 0,0 km/h (0 Bft)
23.06.2012 23:30 11,8 C 84 % 0,0 l/m 0,0 km/h (0 Bft) NO 45 9,2 C 11,3 C 0,0 km/h (0 Bft)
23.06.2012 23:35 11,8 C 84 % 0,0 l/m 0,0 km/h (0 Bft) NO 45 9,2 C 11,1 C 0,0 km/h (0 Bft)
23.06.2012 23:40 11,6 C 84 % 0,0 l/m 0,0 km/h (0 Bft) N-NO 22 9,0 C 11,0 C 0,0 km/h (0 Bft)
23.06.2012 23:45 11,6 C 84 % 0,0 l/m 0,0 km/h (0 Bft) SW 225 9,0 C 10,9 C 0,0 km/h (0 Bft)
23.06.2012 23:50 11,3 C 84 % 0,0 l/m 0,0 km/h (0 Bft) S 180 8,7 C 10,7 C 0,0 km/h (0 Bft)
23.06.2012 23:55 11,3 C 85 % 0,0 l/m 0,0 km/h (0 Bft) N-NO 22 8,9 C 10,5 C 0,0 km/h (0 Bft)
_ Min-Zeit 23:55 12:48 - 23:55 - - 09:28 23:55 23:55
Minimum _ 11,3 C 39 % - 0,0 km/h (0 Bft) - - 6,1 C 10,5 C 0,0 km/h (0 Bft)
_ Max-Zeit 15:03 23:55 23:55 13:53 - - 19:58 15:13 10:48
Maximum _ 24,4 C 85 % 0,0 l/m 5,5 km/h
W-SW (1 Bft)
- - 11,7 C 27,0 C 11,3 km/h
N-NW (2 Bft)
Durchschnitt _ 17,0 C 62 % #0,0 l/m 1,5 km/h (1 Bft) W-NW - 9,1 C 18,1 C 2,0 km/h (1 Bft)